M I D A S
Marine Information and Data Acquisition System
Tripno 142 of the Zeeleeuw from 2001-07-19 06:59:27 to 2001-07-19 14:35:00
Back to CruiseResearch ActivitiesStationsMapUnderway DataData graphs

EquipmentUnitsComments
TimeDGPSUTC
LatitudeDGPSDM.mWGS84
LongitudeDGPSDM.mWGS84
SpeedMeteo Stationm/sRelative wind speed
DirectionMeteo StationdegRelative wind direction
TemperatureMeteo Stationdeg CelciusAir temperature
PressureMeteo StationPaAtmospheric pressure
HumidityMeteo Station%Relative humidity
Missing or incorrect values are displayed as -999
Metereological data collected by the RV Zeeleeuw from 2001-07-19 06:59:27 to 2001-07-19 14:35:00
                                                                                    Next 1000 lines
Time Latitude Longitude Speed Direction Temperature Pressure Humidity
2001-07-19 06:59:37 51°13.979 2°55.544 -999 -999 16 99820 85
2001-07-19 06:59:41 51°13.987 2°55.538 -999 -999 16 99820 85
2001-07-19 06:59:47 51°13.998 2°55.53 -999 -999 16 99820 85
2001-07-19 06:59:51 51°14.006 2°55.524 -999 -999 16 99830 85
2001-07-19 06:59:57 51°14.018 2°55.516 -999 -999 16 99830 85
2001-07-19 07:00:01 51°14.026 2°55.51 -999 -999 16 99810 85
2001-07-19 07:00:07 51°14.038 2°55.502 -999 -999 16 99810 85
2001-07-19 07:00:11 51°14.046 2°55.496 -999 -999 16 99820 85
2001-07-19 07:00:17 51°14.057 2°55.487 -999 -999 16 99820 85
2001-07-19 07:00:21 51°14.065 2°55.481 -999 -999 16 99820 85
2001-07-19 07:00:27 51°14.076 2°55.472 -999 -999 16 99820 85
2001-07-19 07:00:31 51°14.084 2°55.466 -999 -999 16 99820 85
2001-07-19 07:00:37 51°14.095 2°55.456 -999 -999 16 99820 85
2001-07-19 07:00:41 51°14.103 2°55.45 -999 -999 16 99800 85
2001-07-19 07:00:47 51°14.114 2°55.441 -999 -999 16 99800 85
2001-07-19 07:00:51 51°14.122 2°55.435 -999 -999 16 99810 85
2001-07-19 07:00:57 51°14.133 2°55.426 -999 -999 16 99810 85
2001-07-19 07:04:27 51°14.432 2°54.86 -999 -999 -999 -999 -999
2001-07-19 07:04:31 51°14.439 2°54.846 -999 -999 15.9 99800 86
2001-07-19 07:04:37 51°14.449 2°54.826 -999 -999 15.9 99800 86
2001-07-19 07:04:41 51°14.456 2°54.812 -999 -999 15.9 99800 86
2001-07-19 07:04:47 51°14.467 2°54.792 -999 -999 15.9 99800 86
2001-07-19 07:04:51 51°14.474 2°54.778 -999 -999 16 99800 87
2001-07-19 07:04:57 51°14.485 2°54.758 -999 -999 16 99800 87
2001-07-19 07:05:01 51°14.492 2°54.743 -999 -999 16 99800 86
2001-07-19 07:05:07 51°14.501 2°54.721 -999 -999 16 99800 86
2001-07-19 07:05:11 51°14.508 2°54.706 -999 -999 16 99800 86
2001-07-19 07:05:17 51°14.517 2°54.684 -999 -999 16 99800 86
2001-07-19 07:05:21 51°14.524 2°54.669 -999 -999 16 99820 86
2001-07-19 07:05:27 51°14.534 2°54.647 -999 -999 16 99820 86
2001-07-19 07:05:31 51°14.541 2°54.633 -999 -999 16 99820 86
2001-07-19 07:05:37 51°14.551 2°54.612 -999 -999 16 99820 86
2001-07-19 07:05:41 51°14.559 2°54.598 -999 -999 16 99820 86
2001-07-19 07:05:47 51°14.57 2°54.577 -999 -999 16 99820 86
2001-07-19 07:05:51 51°14.578 2°54.563 -999 -999 16 99820 86
2001-07-19 07:05:57 51°14.59 2°54.543 -999 -999 16 99820 86
2001-07-19 07:06:01 51°14.597 2°54.529 -999 -999 16 99810 86
2001-07-19 07:06:07 51°14.609 2°54.508 -999 -999 16 99810 86
2001-07-19 07:06:11 51°14.617 2°54.494 -999 -999 16 99820 86
2001-07-19 07:06:17 51°14.629 2°54.473 -999 -999 16 99820 86
2001-07-19 07:06:21 51°14.637 2°54.458 -999 -999 16 99820 86
2001-07-19 07:06:27 51°14.647 2°54.436 -999 -999 16 99820 86
2001-07-19 07:06:31 51°14.654 2°54.42 -999 -999 16 99820 86
2001-07-19 07:06:37 51°14.665 2°54.397 -999 -999 16 99820 86
2001-07-19 07:06:41 51°14.672 2°54.382 -999 -999 16 99820 85
2001-07-19 07:06:47 51°14.682 2°54.358 -999 -999 16 99820 85
2001-07-19 07:06:51 51°14.689 2°54.342 -999 -999 15.9 99810 85
2001-07-19 07:06:57 51°14.699 2°54.319 -999 -999 15.9 99810 85
2001-07-19 07:07:01 51°14.706 2°54.303 -999 -999 15.9 99830 85
2001-07-19 07:07:07 51°14.717 2°54.281 -999 -999 15.9 99830 85
2001-07-19 07:07:11 51°14.724 2°54.266 -999 -999 15.9 99820 85
2001-07-19 07:07:17 51°14.736 2°54.244 -999 -999 15.9 99820 85
2001-07-19 07:07:21 51°14.743 2°54.229 -999 -999 15.9 99830 85
2001-07-19 07:07:27 51°14.754 2°54.206 -999 -999 15.9 99830 85
2001-07-19 07:07:31 51°14.761 2°54.191 -999 -999 15.8 99820 85
2001-07-19 07:07:37 51°14.772 2°54.168 -999 -999 15.8 99820 85
2001-07-19 07:07:41 51°14.779 2°54.152 -999 -999 15.9 99820 86
2001-07-19 07:07:47 51°14.79 2°54.129 -999 -999 15.9 99820 86
2001-07-19 07:07:51 51°14.796 2°54.113 -999 -999 15.9 99830 86
2001-07-19 07:07:57 51°14.807 2°54.09 -999 -999 15.9 99830 86
2001-07-19 07:08:01 51°14.814 2°54.075 -999 -999 15.9 99830 87
2001-07-19 07:08:07 51°14.826 2°54.053 -999 -999 15.9 99830 87
2001-07-19 07:08:11 51°14.833 2°54.038 -999 -999 15.9 99830 87
2001-07-19 07:08:17 51°14.844 2°54.016 -999 -999 15.9 99830 87
2001-07-19 07:08:21 51°14.852 2°54.001 -999 -999 15.9 99830 87
2001-07-19 07:08:27 51°14.863 2°53.978 -999 -999 15.9 99830 87
2001-07-19 07:08:31 51°14.87 2°53.962 -999 -999 16 99830 87
2001-07-19 07:08:37 51°14.879 2°53.938 -999 -999 16 99830 87
2001-07-19 07:08:41 51°14.886 2°53.922 -999 -999 16 99830 87
2001-07-19 07:08:47 51°14.896 2°53.898 -999 -999 16 99830 87
2001-07-19 07:08:51 51°14.903 2°53.882 -999 -999 15.9 99830 87
2001-07-19 07:08:57 51°14.913 2°53.859 -999 -999 15.9 99830 87
2001-07-19 07:09:01 51°14.92 2°53.843 -999 -999 16 99830 87
2001-07-19 07:09:07 51°14.931 2°53.82 -999 -999 16 99830 87
2001-07-19 07:09:11 51°14.939 2°53.805 -999 -999 16 99830 87
2001-07-19 07:09:17 51°14.95 2°53.783 -999 -999 16 99830 87
2001-07-19 07:09:21 51°14.957 2°53.769 -999 -999 16 99830 87
2001-07-19 07:09:27 51°14.969 2°53.747 -999 -999 16 99830 87
2001-07-19 07:09:32 51°14.979 2°53.729 -999 -999 16 99830 87
2001-07-19 07:09:37 51°14.988 2°53.711 -999 -999 16 99830 87
2001-07-19 07:09:41 51°14.996 2°53.697 -999 -999 15.9 99830 87
2001-07-19 07:09:47 51°15.008 2°53.675 -999 -999 15.9 99830 87
2001-07-19 07:09:51 51°15.015 2°53.66 -999 -999 15.9 99830 86
2001-07-19 07:09:57 51°15.025 2°53.638 -999 -999 15.9 99830 86
2001-07-19 07:10:01 51°15.032 2°53.625 -999 -999 15.9 99830 86
2001-07-19 07:10:07 51°15.04 2°53.605 -999 -999 15.9 99830 86
2001-07-19 07:10:11 51°15.045 2°53.592 -999 -999 15.9 99830 87
2001-07-19 07:10:17 51°15.052 2°53.575 -999 -999 15.9 99830 87
2001-07-19 07:10:21 51°15.056 2°53.563 -999 -999 15.9 99840 87
2001-07-19 07:10:27 51°15.062 2°53.547 -999 -999 15.9 99840 87
2001-07-19 07:10:31 51°15.066 2°53.536 -999 -999 15.9 99840 87
2001-07-19 07:10:37 51°15.071 2°53.522 -999 -999 15.9 99840 87
2001-07-19 07:10:41 51°15.074 2°53.512 -999 -999 15.9 99830 87
2001-07-19 07:10:47 51°15.078 2°53.5 -999 -999 15.9 99830 87
2001-07-19 07:10:51 51°15.081 2°53.491 -999 -999 15.9 99840 87
2001-07-19 07:10:57 51°15.084 2°53.48 -999 -999 15.9 99840 87
2001-07-19 07:11:01 51°15.087 2°53.473 -999 -999 15.9 99840 87
2001-07-19 07:11:07 51°15.09 2°53.463 -999 -999 15.9 99840 87
2001-07-19 07:11:11 51°15.091 2°53.458 -999 -999 15.9 99830 87
2001-07-19 07:11:17 51°15.093 2°53.452 -999 -999 15.9 99830 87
2001-07-19 07:11:21 51°15.095 2°53.449 -999 -999 15.9 99830 87
2001-07-19 07:11:27 51°15.096 2°53.446 -999 -999 15.9 99830 87
2001-07-19 07:11:31 51°15.096 2°53.445 -999 -999 15.9 99830 87
2001-07-19 07:11:37 51°15.096 2°53.443 -999 -999 15.9 99830 87
2001-07-19 07:11:41 51°15.096 2°53.443 -999 -999 15.8 99820 87
2001-07-19 07:11:47 51°15.094 2°53.443 -999 -999 15.8 99820 87
2001-07-19 07:11:51 51°15.093 2°53.443 -999 -999 15.8 99820 87
2001-07-19 07:11:57 51°15.09 2°53.443 -999 -999 15.8 99820 87
2001-07-19 07:12:03 51°15.086 2°53.443 -999 -999 15.8 99830 87
2001-07-19 07:12:07 51°15.084 2°53.443 -999 -999 15.8 99830 87
2001-07-19 07:12:13 51°15.081 2°53.442 -999 -999 15.8 99840 87
2001-07-19 07:12:17 51°15.079 2°53.442 -999 -999 15.8 99840 87
2001-07-19 07:12:23 51°15.076 2°53.442 -999 -999 15.8 99830 87
2001-07-19 07:12:27 51°15.074 2°53.441 -999 -999 15.8 99830 87
2001-07-19 07:12:33 51°15.071 2°53.44 -999 -999 15.8 99840 87
2001-07-19 07:12:37 51°15.069 2°53.439 -999 -999 15.8 99840 87
2001-07-19 07:12:43 51°15.066 2°53.438 -999 -999 15.8 99830 88
2001-07-19 07:12:47 51°15.064 2°53.438 -999 -999 15.8 99830 88
2001-07-19 07:12:53 51°15.062 2°53.437 -999 -999 15.8 99830 87
2001-07-19 07:12:57 51°15.06 2°53.436 -999 -999 15.8 99830 87
2001-07-19 07:13:03 51°15.057 2°53.435 -999 -999 15.8 99830 88
2001-07-19 07:13:07 51°15.056 2°53.435 -999 -999 15.8 99830 88
2001-07-19 07:13:13 51°15.053 2°53.434 -999 -999 15.9 99830 88
2001-07-19 07:13:18 51°15.052 2°53.433 -999 -999 15.9 99830 88
2001-07-19 07:13:23 51°15.05 2°53.433 -999 -999 15.9 99830 88
2001-07-19 07:13:27 51°15.048 2°53.432 -999 -999 15.9 99830 88
2001-07-19 07:13:32 51°15.046 2°53.432 -999 -999 15.9 99830 88
2001-07-19 07:13:37 51°15.044 2°53.431 -999 -999 15.9 99830 88
2001-07-19 09:10:31 51°17.627 2°52.459 -999 -999 15.8 99930 88
2001-07-19 09:10:36 51°17.61 2°52.451 -999 -999 15.8 99930 88
2001-07-19 09:10:41 51°17.592 2°52.444 -999 -999 15.8 99940 87
2001-07-19 09:10:46 51°17.575 2°52.435 -999 -999 15.8 99940 87
2001-07-19 09:10:51 51°17.558 2°52.428 -999 -999 15.8 99940 87
2001-07-19 09:10:55 51°17.544 2°52.421 -999 -999 15.8 99940 87
2001-07-19 09:11:01 51°17.523 2°52.412 -999 -999 15.8 99920 87
2001-07-19 09:11:05 51°17.509 2°52.406 -999 -999 15.8 99920 87
2001-07-19 09:11:11 51°17.489 2°52.397 -999 -999 15.8 99940 87
2001-07-19 09:11:15 51°17.475 2°52.393 -999 -999 15.8 99940 87
2001-07-19 09:11:21 51°17.453 2°52.388 -999 -999 15.7 99930 87
2001-07-19 09:11:25 51°17.438 2°52.386 -999 -999 15.7 99930 87
2001-07-19 09:11:31 51°17.417 2°52.384 -999 -999 15.7 99940 87
2001-07-19 09:11:35 51°17.402 2°52.385 -999 -999 15.7 99940 87
2001-07-19 09:11:41 51°17.38 2°52.383 -999 -999 15.7 99940 88
2001-07-19 09:11:45 51°17.366 2°52.384 -999 -999 15.7 99940 88
2001-07-19 09:11:51 51°17.344 2°52.386 -999 -999 15.7 99940 88
2001-07-19 09:11:55 51°17.33 2°52.388 -999 -999 15.7 99940 88
2001-07-19 09:12:01 51°17.308 2°52.388 -999 -999 15.8 99940 88
2001-07-19 09:12:05 51°17.293 2°52.39 -999 -999 15.8 99940 88
2001-07-19 09:12:11 51°17.271 2°52.39 -999 -999 15.7 99940 88
2001-07-19 09:12:16 51°17.253 2°52.392 -999 -999 15.7 99940 88
2001-07-19 09:12:21 51°17.235 2°52.395 -999 -999 15.7 99940 88
2001-07-19 09:12:25 51°17.221 2°52.398 -999 -999 15.7 99940 88
2001-07-19 09:12:31 51°17.199 2°52.406 -999 -999 15.7 99960 87
2001-07-19 09:12:36 51°17.181 2°52.411 -999 -999 15.7 99960 87
2001-07-19 09:12:41 51°17.162 2°52.418 -999 -999 15.6 99950 87
2001-07-19 09:12:46 51°17.145 2°52.426 -999 -999 15.6 99950 87
2001-07-19 09:12:51 51°17.128 2°52.436 -999 -999 15.6 99970 87
2001-07-19 09:12:55 51°17.114 2°52.446 -999 -999 15.6 99970 87
2001-07-19 09:13:01 51°17.094 2°52.461 -999 -999 15.6 99960 87
2001-07-19 09:13:05 51°17.081 2°52.474 -999 -999 15.6 99960 87
2001-07-19 09:13:11 51°17.062 2°52.492 -999 -999 15.5 99970 87
2001-07-19 09:13:15 51°17.05 2°52.505 -999 -999 15.5 99970 87
2001-07-19 09:13:21 51°17.031 2°52.525 -999 -999 15.5 99960 88
2001-07-19 09:13:25 51°17.019 2°52.538 -999 -999 15.5 99960 88
2001-07-19 09:13:31 51°16.999 2°52.557 -999 -999 15.5 99970 88
2001-07-19 09:13:35 51°16.986 2°52.57 -999 -999 15.5 99970 88
2001-07-19 09:13:41 51°16.966 2°52.589 -999 -999 15.5 99970 88
2001-07-19 09:13:45 51°16.953 2°52.602 -999 -999 15.5 99970 88
2001-07-19 09:13:51 51°16.933 2°52.62 -999 -999 15.4 99970 88
2001-07-19 09:13:55 51°16.92 2°52.631 -999 -999 15.4 99970 88
2001-07-19 09:14:01 51°16.9 2°52.647 -999 -999 15.4 99970 88
2001-07-19 09:14:05 51°16.886 2°52.656 -999 -999 15.4 99970 88
2001-07-19 09:14:11 51°16.865 2°52.67 -999 -999 15.4 99970 88
2001-07-19 09:14:15 51°16.851 2°52.679 -999 -999 15.4 99970 88
2001-07-19 09:14:21 51°16.83 2°52.693 -999 -999 15.4 99970 89
2001-07-19 09:14:25 51°16.816 2°52.703 -999 -999 15.4 99970 89
2001-07-19 09:14:31 51°16.796 2°52.719 -999 -999 15.4 99970 89
2001-07-19 09:14:36 51°16.779 2°52.731 -999 -999 15.4 99970 89
2001-07-19 09:14:41 51°16.763 2°52.746 -999 -999 15.5 99960 89
2001-07-19 09:14:45 51°16.75 2°52.758 -999 -999 15.5 99960 89
2001-07-19 09:14:51 51°16.732 2°52.779 -999 -999 15.5 99970 89
2001-07-19 09:14:55 51°16.72 2°52.795 -999 -999 15.5 99970 89
2001-07-19 09:15:01 51°16.704 2°52.82 -999 -999 15.5 99960 89
2001-07-19 09:15:05 51°16.693 2°52.837 -999 -999 15.5 99960 89
2001-07-19 09:15:11 51°16.676 2°52.861 -999 -999 15.5 99970 89
2001-07-19 09:15:16 51°16.661 2°52.881 -999 -999 15.5 99970 89
2001-07-19 09:15:21 51°16.646 2°52.899 -999 -999 15.5 99970 89
2001-07-19 09:15:25 51°16.635 2°52.911 -999 -999 15.5 99970 89
2001-07-19 09:15:31 51°16.616 2°52.934 -999 -999 15.5 99980 89
2001-07-19 09:15:37 51°16.597 2°52.955 -999 -999 15.5 99980 89
2001-07-19 09:15:41 51°16.584 2°52.968 -999 -999 15.5 99970 90
2001-07-19 09:15:45 51°16.572 2°52.981 -999 -999 15.5 99970 90
2001-07-19 09:15:51 51°16.553 2°53.002 -999 -999 15.5 99970 90
2001-07-19 09:15:56 51°16.537 2°53.019 -999 -999 15.5 99970 90
2001-07-19 09:16:01 51°16.522 2°53.035 -999 -999 15.5 99970 90
2001-07-19 09:16:05 51°16.508 2°53.047 -999 -999 15.5 99970 90
2001-07-19 09:16:11 51°16.489 2°53.066 -999 -999 15.5 99970 90
2001-07-19 09:16:15 51°16.476 2°53.079 -999 -999 15.5 99970 90
2001-07-19 09:16:21 51°16.456 2°53.099 -999 -999 15.5 99970 90
2001-07-19 09:16:25 51°16.444 2°53.114 -999 -999 15.5 99970 90
2001-07-19 09:16:31 51°16.425 2°53.135 -999 -999 15.5 99960 90
2001-07-19 09:16:36 51°16.41 2°53.152 -999 -999 15.5 99960 90
2001-07-19 09:16:41 51°16.393 2°53.169 -999 -999 15.5 99970 90
2001-07-19 09:16:45 51°16.38 2°53.183 -999 -999 15.5 99970 90
2001-07-19 09:16:51 51°16.361 2°53.202 -999 -999 15.5 99970 89
2001-07-19 09:16:55 51°16.348 2°53.216 -999 -999 15.5 99970 89
2001-07-19 09:17:01 51°16.328 2°53.238 -999 -999 15.5 99970 89
2001-07-19 09:17:05 51°16.315 2°53.253 -999 -999 15.5 99970 89
2001-07-19 09:17:11 51°16.297 2°53.275 -999 -999 15.5 99970 89
2001-07-19 09:17:16 51°16.281 2°53.292 -999 -999 15.5 99970 89
2001-07-19 09:17:21 51°16.265 2°53.31 -999 -999 15.4 99970 89
2001-07-19 09:17:25 51°16.252 2°53.323 -999 -999 15.4 99970 89
2001-07-19 09:17:31 51°16.232 2°53.344 -999 -999 15.4 99980 89
2001-07-19 09:17:35 51°16.218 2°53.357 -999 -999 15.4 99980 89
2001-07-19 09:17:41 51°16.199 2°53.376 -999 -999 15.4 99970 89
2001-07-19 09:17:46 51°16.185 2°53.39 -999 -999 15.4 99970 89
2001-07-19 09:17:51 51°16.172 2°53.405 -999 -999 15.4 99970 89
2001-07-19 09:17:56 51°16.158 2°53.418 -999 -999 15.4 99970 89
2001-07-19 09:18:01 51°16.146 2°53.43 -999 -999 15.4 99970 89
2001-07-19 09:18:05 51°16.137 2°53.438 -999 -999 15.4 99970 89
2001-07-19 09:18:11 51°16.124 2°53.449 -999 -999 15.4 99980 89
2001-07-19 09:18:15 51°16.116 2°53.455 -999 -999 15.4 99980 89
2001-07-19 09:18:21 51°16.104 2°53.463 -999 -999 15.4 99970 89
2001-07-19 09:18:25 51°16.097 2°53.467 -999 -999 15.4 99970 89
2001-07-19 09:18:31 51°16.086 2°53.472 -999 -999 15.4 99970 90
2001-07-19 09:18:36 51°16.078 2°53.475 -999 -999 15.4 99970 90
2001-07-19 09:18:41 51°16.071 2°53.478 -999 -999 15.4 99970 90
2001-07-19 09:18:57 51°16.054 2°53.489 -999 -999 15.4 99970 90
2001-07-19 09:19:03 51°16.049 2°53.493 -999 -999 15.5 99970 90
2001-07-19 09:19:07 51°16.047 2°53.497 -999 -999 15.5 99970 90
2001-07-19 09:19:13 51°16.044 2°53.502 -999 -999 15.4 99970 90
2001-07-19 09:21:53 51°16.036 2°53.621 -999 -999 15.5 99990 90
2001-07-19 09:21:59 51°16.035 2°53.625 -999 -999 15.5 99990 90
2001-07-19 09:22:03 51°16.034 2°53.628 -999 -999 15.5 99980 90
2001-07-19 09:22:09 51°16.033 2°53.633 -999 -999 15.5 99980 90
2001-07-19 09:22:13 51°16.032 2°53.636 -999 -999 15.5 99980 89
2001-07-19 09:22:19 51°16.031 2°53.64 -999 -999 15.5 99980 89
2001-07-19 09:22:23 51°16.03 2°53.643 -999 -999 15.5 99990 88
2001-07-19 09:22:29 51°16.029 2°53.647 -999 -999 15.5 99990 88
2001-07-19 09:22:33 51°16.028 2°53.65 -999 -999 15.4 99980 88
2001-07-19 09:22:39 51°16.027 2°53.654 -999 -999 15.4 99980 88
2001-07-19 09:22:43 51°16.026 2°53.657 -999 -999 15.4 99980 88
2001-07-19 09:22:49 51°16.025 2°53.66 -999 -999 15.4 99980 88
2001-07-19 09:22:53 51°16.024 2°53.663 -999 -999 15.4 99980 88
2001-07-19 09:22:59 51°16.023 2°53.667 -999 -999 15.4 99980 88
2001-07-19 09:23:03 51°16.023 2°53.669 -999 -999 15.4 99980 88
2001-07-19 09:23:09 51°16.022 2°53.673 -999 -999 15.4 99980 88
2001-07-19 09:23:13 51°16.021 2°53.675 -999 -999 15.4 99970 89
2001-07-19 09:23:19 51°16.02 2°53.679 -999 -999 15.4 99970 89
2001-07-19 09:23:23 51°16.019 2°53.681 -999 -999 15.4 99970 89
2001-07-19 09:23:29 51°16.018 2°53.684 -999 -999 15.4 99970 89
2001-07-19 09:23:33 51°16.017 2°53.687 -999 -999 15.4 99980 88
2001-07-19 09:23:39 51°16.016 2°53.69 -999 -999 15.4 99980 88
2001-07-19 09:23:43 51°16.016 2°53.693 -999 -999 15.4 99970 88
2001-07-19 09:23:49 51°16.015 2°53.696 -999 -999 15.4 99970 88
2001-07-19 09:23:53 51°16.014 2°53.699 -999 -999 15.3 99980 88
2001-07-19 09:23:59 51°16.013 2°53.702 -999 -999 15.3 99980 88
2001-07-19 09:24:03 51°16.013 2°53.705 -999 -999 15.4 99970 89
2001-07-19 09:24:09 51°16.012 2°53.708 -999 -999 15.4 99970 89
2001-07-19 09:24:13 51°16.011 2°53.711 -999 -999 15.4 99970 89
2001-07-19 09:24:19 51°16.009 2°53.714 -999 -999 15.4 99970 89
2001-07-19 09:24:24 51°16.006 2°53.715 -999 -999 15.4 99970 89
2001-07-19 09:24:29 51°16.003 2°53.716 -999 -999 15.4 99970 89
2001-07-19 09:24:33 51°16 2°53.717 -999 -999 15.4 99970 89
2001-07-19 09:24:39 51°15.994 2°53.718 -999 -999 15.4 99970 89
2001-07-19 09:24:43 51°15.99 2°53.72 -999 -999 15.4 99960 89
2001-07-19 09:24:49 51°15.984 2°53.724 -999 -999 15.4 99960 89
2001-07-19 09:24:53 51°15.98 2°53.727 -999 -999 15.4 99970 88
2001-07-19 09:24:59 51°15.973 2°53.732 -999 -999 15.4 99970 88
2001-07-19 09:25:03 51°15.969 2°53.737 -999 -999 15.4 99970 88
2001-07-19 09:25:09 51°15.963 2°53.746 -999 -999 15.4 99970 88
2001-07-19 09:25:13 51°15.96 2°53.753 -999 -999 15.4 99970 89
2001-07-19 09:25:19 51°15.955 2°53.765 -999 -999 15.4 99970 89
2001-07-19 09:25:23 51°15.952 2°53.774 -999 -999 15.5 99970 89
2001-07-19 09:25:29 51°15.948 2°53.79 -999 -999 15.5 99970 89
2001-07-19 09:25:33 51°15.946 2°53.803 -999 -999 15.5 99980 89
2001-07-19 09:25:39 51°15.944 2°53.824 -999 -999 15.5 99980 89
2001-07-19 09:25:43 51°15.943 2°53.838 -999 -999 15.5 99980 89
2001-07-19 09:25:49 51°15.943 2°53.861 -999 -999 15.5 99980 89
2001-07-19 09:25:53 51°15.944 2°53.877 -999 -999 15.6 99970 89
2001-07-19 09:25:59 51°15.947 2°53.901 -999 -999 15.6 99970 89
2001-07-19 09:26:03 51°15.951 2°53.917 -999 -999 15.6 99970 89
2001-07-19 09:26:09 51°15.956 2°53.94 -999 -999 15.6 99970 89
2001-07-19 09:26:13 51°15.962 2°53.955 -999 -999 15.5 99970 88
2001-07-19 09:26:19 51°15.971 2°53.976 -999 -999 15.5 99970 88
2001-07-19 09:26:23 51°15.979 2°53.989 -999 -999 15.6 99960 88
2001-07-19 09:26:29 51°15.99 2°54.007 -999 -999 15.6 99960 88
2001-07-19 09:26:33 51°15.999 2°54.017 -999 -999 15.5 99960 88
2001-07-19 09:26:39 51°16.013 2°54.032 -999 -999 15.5 99960 88
2001-07-19 09:26:43 51°16.022 2°54.041 -999 -999 15.6 99960 88
2001-07-19 09:26:49 51°16.036 2°54.054 -999 -999 15.6 99960 88
2001-07-19 09:26:53 51°16.046 2°54.063 -999 -999 15.6 99950 88
2001-07-19 09:26:59 51°16.061 2°54.077 -999 -999 15.6 99950 88
2001-07-19 09:27:03 51°16.07 2°54.085 -999 -999 15.6 99950 88
2001-07-19 09:27:09 51°16.086 2°54.099 -999 -999 15.6 99950 88
2001-07-19 09:27:13 51°16.096 2°54.107 -999 -999 15.6 99950 88
2001-07-19 09:27:19 51°16.112 2°54.119 -999 -999 15.6 99950 88
2001-07-19 09:27:23 51°16.122 2°54.127 -999 -999 15.6 99950 88
2001-07-19 09:27:29 51°16.139 2°54.138 -999 -999 15.6 99950 88
2001-07-19 09:27:33 51°16.15 2°54.145 -999 -999 15.6 99940 87
2001-07-19 09:27:39 51°16.166 2°54.156 -999 -999 15.6 99940 87
2001-07-19 09:27:43 51°16.177 2°54.163 -999 -999 15.6 99950 87
2001-07-19 09:27:49 51°16.193 2°54.174 -999 -999 15.6 99950 87
2001-07-19 09:27:53 51°16.204 2°54.181 -999 -999 15.6 99950 88
2001-07-19 09:27:59 51°16.221 2°54.192 -999 -999 15.6 99950 88
2001-07-19 09:28:03 51°16.232 2°54.2 -999 -999 15.6 99930 87
2001-07-19 09:28:09 51°16.248 2°54.211 -999 -999 15.6 99930 87
2001-07-19 09:28:13 51°16.259 2°54.219 -999 -999 15.6 99940 87
2001-07-19 09:28:19 51°16.276 2°54.229 -999 -999 15.6 99940 87
2001-07-19 09:28:23 51°16.287 2°54.237 -999 -999 15.6 99940 87
2001-07-19 09:28:29 51°16.304 2°54.248 -999 -999 15.6 99940 87
2001-07-19 09:28:33 51°16.315 2°54.255 -999 -999 15.6 99940 87
2001-07-19 09:28:39 51°16.332 2°54.266 -999 -999 15.6 99940 87
2001-07-19 09:28:43 51°16.343 2°54.274 -999 -999 15.6 99950 88
2001-07-19 09:28:49 51°16.359 2°54.286 -999 -999 15.6 99950 88
2001-07-19 09:28:53 51°16.37 2°54.294 -999 -999 15.6 99950 87
2001-07-19 09:28:59 51°16.387 2°54.306 -999 -999 15.6 99950 87
2001-07-19 09:29:03 51°16.398 2°54.314 -999 -999 15.6 99940 87
2001-07-19 09:29:09 51°16.415 2°54.327 -999 -999 15.6 99940 87
2001-07-19 09:29:13 51°16.426 2°54.336 -999 -999 15.6 99950 87
2001-07-19 09:29:19 51°16.443 2°54.348 -999 -999 15.6 99950 87
2001-07-19 09:29:23 51°16.453 2°54.358 -999 -999 15.6 99940 87
2001-07-19 09:29:29 51°16.47 2°54.371 -999 -999 15.6 99940 87
2001-07-19 09:29:33 51°16.48 2°54.38 -999 -999 15.6 99950 87
2001-07-19 09:29:39 51°16.496 2°54.394 -999 -999 15.6 99950 87
2001-07-19 09:29:45 51°16.512 2°54.408 -999 -999 15.7 99940 87
2001-07-19 09:29:49 51°16.523 2°54.418 -999 -999 15.7 99940 87
2001-07-19 09:29:53 51°16.533 2°54.428 -999 -999 15.7 99960 87
2001-07-19 09:29:59 51°16.549 2°54.442 -999 -999 15.7 99960 87
2001-07-19 09:30:03 51°16.559 2°54.453 -999 -999 15.7 99930 87
2001-07-19 09:30:09 51°16.575 2°54.468 -999 -999 15.7 99930 87
2001-07-19 09:30:13 51°16.586 2°54.477 -999 -999 15.7 99960 87
2001-07-19 09:30:19 51°16.602 2°54.492 -999 -999 15.7 99960 87
2001-07-19 09:30:23 51°16.612 2°54.502 -999 -999 15.7 99940 87
2001-07-19 09:30:29 51°16.627 2°54.518 -999 -999 15.7 99940 87
2001-07-19 09:30:33 51°16.638 2°54.529 -999 -999 15.7 99930 87
2001-07-19 09:30:39 51°16.652 2°54.543 -999 -999 15.7 99930 87
2001-07-19 09:30:43 51°16.661 2°54.553 -999 -999 15.7 99950 87
2001-07-19 09:30:49 51°16.674 2°54.566 -999 -999 15.7 99950 87
2001-07-19 09:30:53 51°16.681 2°54.575 -999 -999 15.7 99940 87
2001-07-19 09:30:59 51°16.692 2°54.586 -999 -999 15.7 99940 87
2001-07-19 09:31:03 51°16.699 2°54.594 -999 -999 15.7 99950 87
2001-07-19 09:31:09 51°16.708 2°54.603 -999 -999 15.7 99950 87
2001-07-19 09:31:13 51°16.715 2°54.609 -999 -999 15.7 99950 87
2001-07-19 09:31:19 51°16.723 2°54.618 -999 -999 15.7 99950 87
2001-07-19 09:31:23 51°16.728 2°54.624 -999 -999 15.7 99940 87
2001-07-19 09:31:29 51°16.736 2°54.631 -999 -999 15.7 99940 87
2001-07-19 09:31:33 51°16.741 2°54.636 -999 -999 15.7 99950 87
2001-07-19 09:31:39 51°16.747 2°54.643 -999 -999 15.7 99950 87
2001-07-19 09:31:43 51°16.751 2°54.648 -999 -999 15.7 99970 87
2001-07-19 09:31:49 51°16.755 2°54.654 -999 -999 15.7 99970 87
2001-07-19 09:31:53 51°16.757 2°54.658 -999 -999 15.8 99950 87
2001-07-19 09:31:59 51°16.76 2°54.665 -999 -999 15.8 99950 87
2001-07-19 09:32:03 51°16.761 2°54.669 -999 -999 15.7 99950 87
2001-07-19 09:32:09 51°16.762 2°54.675 -999 -999 15.7 99950 87
2001-07-19 09:32:13 51°16.763 2°54.678 -999 -999 15.8 99950 87
2001-07-19 09:32:19 51°16.764 2°54.683 -999 -999 15.8 99950 87
2001-07-19 09:32:23 51°16.764 2°54.686 -999 -999 15.7 99960 87
2001-07-19 09:32:29 51°16.763 2°54.69 -999 -999 15.7 99960 87
2001-07-19 09:32:35 51°16.761 2°54.693 -999 -999 15.8 99960 87
2001-07-19 09:32:40 51°16.76 2°54.695 -999 -999 15.8 99960 87
2001-07-19 09:32:45 51°16.759 2°54.698 -999 -999 15.8 99960 87
2001-07-19 09:32:50 51°16.757 2°54.701 -999 -999 15.8 99960 87
2001-07-19 09:32:55 51°16.756 2°54.704 -999 -999 15.8 99960 88
2001-07-19 09:33:00 51°16.755 2°54.706 -999 -999 15.8 99960 88
2001-07-19 09:33:05 51°16.755 2°54.709 -999 -999 15.9 99960 87
2001-07-19 09:33:10 51°16.754 2°54.712 -999 -999 15.9 99960 87
2001-07-19 09:33:15 51°16.754 2°54.716 -999 -999 15.9 99960 87
2001-07-19 09:33:20 51°16.754 2°54.719 -999 -999 15.9 99960 87
2001-07-19 09:33:25 51°16.754 2°54.723 -999 -999 15.9 99960 87
2001-07-19 09:33:30 51°16.754 2°54.727 -999 -999 15.9 99960 87
2001-07-19 09:33:35 51°16.754 2°54.73 -999 -999 15.8 99960 87
2001-07-19 09:33:40 51°16.754 2°54.734 -999 -999 15.8 99960 87
2001-07-19 09:33:45 51°16.754 2°54.738 -999 -999 15.8 99960 87
2001-07-19 09:33:49 51°16.754 2°54.742 -999 -999 15.8 99960 87
2001-07-19 09:33:53 51°16.754 2°54.744 -999 -999 15.8 99960 87
2001-07-19 09:33:59 51°16.753 2°54.749 -999 -999 15.8 99960 87
2001-07-19 09:34:03 51°16.754 2°54.752 -999 -999 15.8 99960 87
2001-07-19 09:34:09 51°16.754 2°54.757 -999 -999 15.8 99960 87
2001-07-19 09:34:13 51°16.754 2°54.76 -999 -999 15.8 99960 87
2001-07-19 09:34:19 51°16.754 2°54.765 -999 -999 15.8 99960 87
2001-07-19 09:34:23 51°16.754 2°54.768 -999 -999 15.8 99970 87
2001-07-19 09:34:29 51°16.754 2°54.773 -999 -999 15.8 99970 87
2001-07-19 09:34:33 51°16.754 2°54.777 -999 -999 15.8 99960 87
2001-07-19 09:34:39 51°16.754 2°54.782 -999 -999 15.8 99960 87
2001-07-19 09:34:43 51°16.755 2°54.785 -999 -999 15.8 99960 87
2001-07-19 09:34:49 51°16.755 2°54.791 -999 -999 15.8 99960 87
2001-07-19 09:34:53 51°16.755 2°54.794 -999 -999 15.8 99960 87
2001-07-19 09:34:59 51°16.755 2°54.799 -999 -999 15.8 99960 87
2001-07-19 09:35:03 51°16.756 2°54.803 -999 -999 15.8 99960 87
2001-07-19 09:35:09 51°16.756 2°54.808 -999 -999 15.8 99960 87
2001-07-19 09:35:13 51°16.756 2°54.812 -999 -999 15.8 99970 86
2001-07-19 09:35:19 51°16.757 2°54.817 -999 -999 15.8 99970 86
2001-07-19 09:35:23 51°16.757 2°54.821 -999 -999 15.8 99970 86
2001-07-19 09:35:29 51°16.757 2°54.826 -999 -999 15.8 99970 86
2001-07-19 09:35:33 51°16.758 2°54.829 -999 -999 15.8 99970 87
2001-07-19 09:35:39 51°16.758 2°54.835 -999 -999 15.8 99970 87
2001-07-19 09:35:43 51°16.758 2°54.838 -999 -999 15.8 99960 87
2001-07-19 09:35:49 51°16.758 2°54.844 -999 -999 15.8 99960 87
2001-07-19 09:35:53 51°16.758 2°54.848 -999 -999 15.8 99960 87
2001-07-19 09:35:59 51°16.758 2°54.853 -999 -999 15.8 99960 87
2001-07-19 09:36:03 51°16.759 2°54.857 -999 -999 15.9 99970 87
2001-07-19 09:36:09 51°16.759 2°54.862 -999 -999 15.9 99970 87
2001-07-19 09:36:13 51°16.759 2°54.866 -999 -999 15.9 99960 87
2001-07-19 09:36:19 51°16.76 2°54.872 -999 -999 15.9 99960 87
2001-07-19 09:36:23 51°16.76 2°54.875 -999 -999 15.8 99960 86
2001-07-19 09:36:29 51°16.761 2°54.881 -999 -999 15.8 99960 86
2001-07-19 09:36:33 51°16.761 2°54.885 -999 -999 15.8 99960 87
2001-07-19 09:36:39 51°16.761 2°54.891 -999 -999 15.8 99960 87
2001-07-19 09:36:43 51°16.761 2°54.895 -999 -999 15.8 99960 87
2001-07-19 09:36:49 51°16.762 2°54.9 -999 -999 15.8 99960 87
2001-07-19 09:36:53 51°16.762 2°54.904 -999 -999 15.8 99950 87
2001-07-19 09:36:59 51°16.763 2°54.91 -999 -999 15.8 99950 87
2001-07-19 09:37:03 51°16.763 2°54.913 -999 -999 15.8 99960 87
2001-07-19 09:37:09 51°16.764 2°54.919 -999 -999 15.8 99960 87
2001-07-19 09:37:13 51°16.765 2°54.924 -999 -999 15.9 99960 87
2001-07-19 09:37:19 51°16.766 2°54.932 -999 -999 15.9 99960 87
2001-07-19 09:37:23 51°16.768 2°54.937 -999 -999 15.9 99970 88
2001-07-19 09:37:29 51°16.77 2°54.945 -999 -999 15.9 99970 88
2001-07-19 09:37:33 51°16.772 2°54.951 -999 -999 15.9 99960 88
2001-07-19 09:37:39 51°16.775 2°54.96 -999 -999 15.9 99960 88
2001-07-19 09:37:43 51°16.777 2°54.966 -999 -999 15.9 99960 87
2001-07-19 09:37:49 51°16.782 2°54.977 -999 -999 15.9 99960 87
2001-07-19 09:37:53 51°16.786 2°54.985 -999 -999 15.9 99970 88
2001-07-19 09:37:59 51°16.794 2°54.996 -999 -999 15.9 99970 88
2001-07-19 09:38:03 51°16.801 2°55.004 -999 -999 15.9 99950 87
2001-07-19 09:38:09 51°16.811 2°55.014 -999 -999 15.9 99950 87
2001-07-19 09:38:13 51°16.818 2°55.02 -999 -999 15.9 99960 87
2001-07-19 09:38:19 51°16.83 2°55.027 -999 -999 15.9 99960 87
2001-07-19 09:38:23 51°16.839 2°55.031 -999 -999 16 99950 87
2001-07-19 09:38:29 51°16.852 2°55.037 -999 -999 16 99950 87
2001-07-19 09:38:33 51°16.862 2°55.04 -999 -999 16 99970 87
2001-07-19 09:38:39 51°16.876 2°55.044 -999 -999 16 99970 87
2001-07-19 09:38:43 51°16.886 2°55.046 -999 -999 16 99950 87
2001-07-19 09:38:49 51°16.901 2°55.048 -999 -999 16 99950 87
2001-07-19 09:38:53 51°16.911 2°55.05 -999 -999 16 99940 87
2001-07-19 09:38:59 51°16.927 2°55.051 -999 -999 16 99940 87
2001-07-19 09:39:03 51°16.938 2°55.051 -999 -999 15.9 99950 86
2001-07-19 09:39:09 51°16.953 2°55.051 -999 -999 15.9 99950 86
2001-07-19 09:39:13 51°16.964 2°55.051 -999 -999 15.9 99950 87
2001-07-19 09:39:19 51°16.98 2°55.049 -999 -999 15.9 99950 87
2001-07-19 09:39:23 51°16.99 2°55.048 -999 -999 15.9 99960 86
2001-07-19 09:39:29 51°17.006 2°55.046 -999 -999 15.9 99960 86
2001-07-19 09:39:33 51°17.017 2°55.045 -999 -999 15.9 99950 86
2001-07-19 09:39:39 51°17.034 2°55.044 -999 -999 15.9 99950 86
2001-07-19 09:39:43 51°17.045 2°55.044 -999 -999 15.9 99950 87
2001-07-19 09:39:49 51°17.062 2°55.045 -999 -999 15.9 99950 87
2001-07-19 09:39:53 51°17.073 2°55.046 -999 -999 15.9 99950 86
2001-07-19 09:39:59 51°17.09 2°55.047 -999 -999 15.9 99950 86
2001-07-19 09:40:03 51°17.101 2°55.05 -999 -999 15.9 99950 86
2001-07-19 09:40:09 51°17.119 2°55.054 -999 -999 15.9 99950 86
2001-07-19 09:40:13 51°17.13 2°55.057 -999 -999 15.9 99940 87
2001-07-19 09:40:19 51°17.147 2°55.062 -999 -999 15.9 99940 87
2001-07-19 09:40:23 51°17.159 2°55.066 -999 -999 15.9 99950 87
2001-07-19 09:40:29 51°17.176 2°55.071 -999 -999 15.9 99950 87
2001-07-19 09:40:33 51°17.187 2°55.074 -999 -999 15.9 99950 87
2001-07-19 09:40:39 51°17.205 2°55.078 -999 -999 15.9 99950 87
2001-07-19 09:40:43 51°17.216 2°55.08 -999 -999 15.9 99940 87
2001-07-19 09:40:49 51°17.233 2°55.082 -999 -999 15.9 99940 87
2001-07-19 09:40:53 51°17.245 2°55.083 -999 -999 15.9 99950 87
2001-07-19 09:40:59 51°17.262 2°55.082 -999 -999 15.9 99950 87
2001-07-19 09:41:03 51°17.273 2°55.08 -999 -999 15.9 99940 87
2001-07-19 09:41:09 51°17.289 2°55.078 -999 -999 15.9 99940 87
2001-07-19 09:41:13 51°17.3 2°55.077 -999 -999 15.9 99960 87
2001-07-19 09:41:19 51°17.315 2°55.075 -999 -999 15.9 99960 87
2001-07-19 09:41:23 51°17.324 2°55.074 -999 -999 15.9 99960 87
2001-07-19 09:41:29 51°17.336 2°55.072 -999 -999 15.9 99960 87
2001-07-19 09:41:33 51°17.344 2°55.071 -999 -999 15.9 99960 87
2001-07-19 09:41:39 51°17.354 2°55.07 -999 -999 15.9 99960 87
2001-07-19 09:41:43 51°17.36 2°55.07 -999 -999 15.9 99970 87
2001-07-19 09:41:49 51°17.367 2°55.07 -999 -999 15.9 99970 87
2001-07-19 09:41:53 51°17.372 2°55.072 -999 -999 15.9 99960 87
2001-07-19 09:41:59 51°17.378 2°55.074 -999 -999 15.9 99960 87
2001-07-19 09:42:03 51°17.382 2°55.077 -999 -999 15.9 99970 87
2001-07-19 09:42:09 51°17.386 2°55.081 -999 -999 15.9 99970 87
2001-07-19 09:42:13 51°17.388 2°55.084 -999 -999 15.9 99970 87
2001-07-19 09:42:19 51°17.391 2°55.088 -999 -999 15.9 99970 87
2001-07-19 09:42:23 51°17.392 2°55.092 -999 -999 15.9 99960 87
2001-07-19 09:42:29 51°17.394 2°55.096 -999 -999 15.9 99960 87
2001-07-19 09:42:33 51°17.395 2°55.1 -999 -999 16 99970 87
2001-07-19 09:42:39 51°17.396 2°55.105 -999 -999 16 99970 87
2001-07-19 09:42:43 51°17.397 2°55.108 -999 -999 16 99970 87
2001-07-19 09:42:49 51°17.398 2°55.114 -999 -999 16 99970 87
2001-07-19 09:42:53 51°17.399 2°55.117 -999 -999 16 99960 87
2001-07-19 09:42:59 51°17.4 2°55.123 -999 -999 16 99960 87
2001-07-19 09:43:05 51°17.401 2°55.128 -999 -999 16 99970 87
2001-07-19 09:43:09 51°17.402 2°55.132 -999 -999 16 99970 87
2001-07-19 09:43:13 51°17.403 2°55.136 -999 -999 16 99970 87
2001-07-19 09:43:19 51°17.404 2°55.142 -999 -999 16 99970 87
2001-07-19 09:43:23 51°17.404 2°55.145 -999 -999 15.9 99980 87
2001-07-19 09:43:29 51°17.406 2°55.151 -999 -999 15.9 99980 87
2001-07-19 09:43:33 51°17.406 2°55.155 -999 -999 15.9 99970 87
2001-07-19 09:43:39 51°17.407 2°55.161 -999 -999 15.9 99970 87
2001-07-19 09:43:43 51°17.408 2°55.165 -999 -999 15.9 99970 87
2001-07-19 09:43:49 51°17.41 2°55.171 -999 -999 15.9 99970 87
2001-07-19 09:43:53 51°17.41 2°55.174 -999 -999 15.9 99980 87
2001-07-19 09:43:59 51°17.412 2°55.18 -999 -999 15.9 99980 87
2001-07-19 09:44:03 51°17.412 2°55.184 -999 -999 16 99980 87
2001-07-19 09:44:09 51°17.413 2°55.19 -999 -999 16 99980 87
2001-07-19 09:44:13 51°17.414 2°55.194 -999 -999 15.9 99980 87
2001-07-19 09:44:19 51°17.416 2°55.2 -999 -999 15.9 99980 87
2001-07-19 09:44:23 51°17.416 2°55.204 -999 -999 15.9 99980 87
2001-07-19 09:44:29 51°17.418 2°55.21 -999 -999 15.9 99980 87
2001-07-19 09:44:33 51°17.418 2°55.213 -999 -999 15.9 99970 87
2001-07-19 09:44:39 51°17.419 2°55.219 -999 -999 15.9 99970 87
2001-07-19 09:44:43 51°17.42 2°55.223 -999 -999 15.9 99980 87
2001-07-19 09:44:49 51°17.421 2°55.229 -999 -999 15.9 99980 87
2001-07-19 09:44:53 51°17.422 2°55.232 -999 -999 15.9 99980 87
2001-07-19 09:44:59 51°17.423 2°55.237 -999 -999 15.9 99980 87
2001-07-19 09:45:03 51°17.424 2°55.241 -999 -999 15.9 99990 87
2001-07-19 09:45:09 51°17.425 2°55.246 -999 -999 15.9 99990 87
2001-07-19 09:45:13 51°17.426 2°55.25 -999 -999 15.9 99980 87
2001-07-19 09:45:19 51°17.427 2°55.255 -999 -999 15.9 99980 87
2001-07-19 09:45:23 51°17.428 2°55.259 -999 -999 16 99980 87
2001-07-19 09:45:29 51°17.429 2°55.264 -999 -999 16 99980 87
2001-07-19 09:45:33 51°17.43 2°55.268 -999 -999 15.9 99980 87
2001-07-19 09:45:39 51°17.431 2°55.273 -999 -999 15.9 99980 87
2001-07-19 09:45:43 51°17.432 2°55.276 -999 -999 16 99970 87
2001-07-19 09:45:49 51°17.433 2°55.281 -999 -999 16 99970 87
2001-07-19 09:45:53 51°17.433 2°55.285 -999 -999 16 99970 88
2001-07-19 09:45:59 51°17.434 2°55.29 -999 -999 16 99970 88
2001-07-19 09:46:03 51°17.435 2°55.294 -999 -999 16 99970 87
2001-07-19 09:46:09 51°17.436 2°55.299 -999 -999 16 99970 87
2001-07-19 09:46:13 51°17.437 2°55.302 -999 -999 16 99970 87
2001-07-19 09:46:19 51°17.438 2°55.307 -999 -999 16 99970 87
2001-07-19 09:46:23 51°17.438 2°55.311 -999 -999 16 99980 87
2001-07-19 09:46:29 51°17.439 2°55.316 -999 -999 16 99980 87
2001-07-19 09:46:33 51°17.44 2°55.319 -999 -999 16 99970 87
2001-07-19 09:46:39 51°17.441 2°55.324 -999 -999 16 99970 87
2001-07-19 09:46:43 51°17.441 2°55.328 -999 -999 16.1 99960 88
2001-07-19 09:46:49 51°17.442 2°55.333 -999 -999 16.1 99960 88
2001-07-19 09:46:53 51°17.442 2°55.337 -999 -999 16.1 99970 88
2001-07-19 09:46:59 51°17.443 2°55.342 -999 -999 16.1 99970 88
2001-07-19 09:47:03 51°17.444 2°55.345 -999 -999 16 99970 87
2001-07-19 09:47:09 51°17.445 2°55.35 -999 -999 16 99970 87
2001-07-19 09:47:13 51°17.446 2°55.354 -999 -999 16 99990 87
2001-07-19 09:47:19 51°17.447 2°55.36 -999 -999 16 99990 87
2001-07-19 09:47:23 51°17.448 2°55.363 -999 -999 16 99980 87
2001-07-19 09:47:29 51°17.449 2°55.369 -999 -999 16 99980 87
2001-07-19 09:47:33 51°17.45 2°55.374 -999 -999 16 99970 87
2001-07-19 09:47:39 51°17.451 2°55.38 -999 -999 16 99970 87
2001-07-19 09:47:43 51°17.452 2°55.384 -999 -999 16 99980 86
2001-07-19 09:47:49 51°17.454 2°55.391 -999 -999 16 99980 86
2001-07-19 09:47:53 51°17.455 2°55.395 -999 -999 16 99980 86
2001-07-19 09:47:59 51°17.457 2°55.402 -999 -999 16 99980 86
2001-07-19 09:48:03 51°17.458 2°55.407 -999 -999 16 99970 87
2001-07-19 09:48:09 51°17.46 2°55.414 -999 -999 16 99970 87
2001-07-19 09:48:13 51°17.462 2°55.419 -999 -999 16 99980 87
2001-07-19 09:48:19 51°17.464 2°55.427 -999 -999 16 99980 87
2001-07-19 09:48:23 51°17.465 2°55.433 -999 -999 16 99980 88
2001-07-19 09:48:29 51°17.467 2°55.441 -999 -999 16 99980 88
2001-07-19 09:48:33 51°17.468 2°55.446 -999 -999 16 99980 87
2001-07-19 09:48:39 51°17.47 2°55.455 -999 -999 16 99980 87
2001-07-19 09:48:43 51°17.471 2°55.461 -999 -999 16 99970 86
2001-07-19 09:48:49 51°17.473 2°55.47 -999 -999 16 99970 86
2001-07-19 09:48:53 51°17.474 2°55.477 -999 -999 16 99970 87
2001-07-19 09:48:59 51°17.475 2°55.486 -999 -999 16 99970 87
2001-07-19 09:49:03 51°17.476 2°55.492 -999 -999 16 99980 87
2001-07-19 09:49:09 51°17.477 2°55.502 -999 -999 16 99980 87
2001-07-19 09:49:13 51°17.478 2°55.508 -999 -999 16 99980 86
2001-07-19 09:49:19 51°17.479 2°55.518 -999 -999 16 99980 86
2001-07-19 09:49:23 51°17.479 2°55.525 -999 -999 15.9 99980 87
2001-07-19 09:49:29 51°17.48 2°55.535 -999 -999 15.9 99980 87
2001-07-19 09:49:33 51°17.48 2°55.542 -999 -999 15.9 99970 86
2001-07-19 09:49:39 51°17.48 2°55.552 -999 -999 15.9 99970 86
2001-07-19 09:49:43 51°17.48 2°55.558 -999 -999 15.9 99980 86
2001-07-19 09:49:49 51°17.48 2°55.568 -999 -999 15.9 99980 86
2001-07-19 09:49:53 51°17.48 2°55.575 -999 -999 15.9 99980 86
2001-07-19 09:49:59 51°17.479 2°55.585 -999 -999 15.9 99980 86
2001-07-19 09:50:05 51°17.478 2°55.595 -999 -999 15.9 99980 87
2001-07-19 09:50:09 51°17.478 2°55.601 -999 -999 15.9 99980 87
2001-07-19 09:50:13 51°17.477 2°55.607 -999 -999 15.9 99980 86
2001-07-19 09:50:19 51°17.476 2°55.616 -999 -999 15.9 99980 86
2001-07-19 09:50:23 51°17.475 2°55.622 -999 -999 15.9 99980 86
2001-07-19 09:50:29 51°17.473 2°55.63 -999 -999 15.9 99980 86
2001-07-19 09:50:33 51°17.472 2°55.636 -999 -999 15.9 99970 87
2001-07-19 09:50:39 51°17.471 2°55.644 -999 -999 15.9 99970 87
2001-07-19 09:50:43 51°17.47 2°55.65 -999 -999 15.9 99980 87
2001-07-19 09:50:49 51°17.468 2°55.658 -999 -999 15.9 99980 87
2001-07-19 09:50:53 51°17.467 2°55.664 -999 -999 15.9 99980 86
2001-07-19 09:50:59 51°17.465 2°55.672 -999 -999 15.9 99980 86
2001-07-19 09:51:03 51°17.464 2°55.678 -999 -999 15.8 99990 86
2001-07-19 09:51:09 51°17.461 2°55.687 -999 -999 15.8 99990 86
2001-07-19 09:51:13 51°17.46 2°55.692 -999 -999 15.8 99990 85
2001-07-19 09:51:19 51°17.458 2°55.701 -999 -999 15.8 99990 85
2001-07-19 09:51:23 51°17.456 2°55.706 -999 -999 15.8 99990 85
2001-07-19 09:51:29 51°17.454 2°55.714 -999 -999 15.8 99990 85
2001-07-19 09:51:33 51°17.453 2°55.72 -999 -999 15.8 99990 85
2001-07-19 09:51:39 51°17.451 2°55.728 -999 -999 15.8 99990 85
2001-07-19 09:51:43 51°17.449 2°55.734 -999 -999 15.8 99990 86
2001-07-19 09:51:49 51°17.447 2°55.742 -999 -999 15.8 99990 86
2001-07-19 09:51:53 51°17.446 2°55.748 -999 -999 15.8 99990 86
2001-07-19 09:51:59 51°17.444 2°55.756 -999 -999 15.8 99990 86
2001-07-19 09:52:03 51°17.442 2°55.762 -999 -999 15.8 99990 86
2001-07-19 09:52:09 51°17.44 2°55.77 -999 -999 15.8 99990 86
2001-07-19 09:52:13 51°17.438 2°55.776 -999 -999 15.9 99990 88
2001-07-19 09:52:19 51°17.436 2°55.784 -999 -999 15.9 99990 88
2001-07-19 09:52:23 51°17.435 2°55.79 -999 -999 15.9 99990 88
2001-07-19 09:52:29 51°17.433 2°55.798 -999 -999 15.9 99990 88
2001-07-19 09:52:33 51°17.431 2°55.804 -999 -999 16 99990 89
2001-07-19 09:52:39 51°17.429 2°55.812 -999 -999 16 99990 89
2001-07-19 09:52:43 51°17.427 2°55.818 -999 -999 16 99990 88
2001-07-19 09:52:49 51°17.425 2°55.826 -999 -999 16 99990 88
2001-07-19 09:52:53 51°17.423 2°55.832 -999 -999 16 99990 87
2001-07-19 09:52:59 51°17.421 2°55.84 -999 -999 16 99990 87
2001-07-19 09:53:03 51°17.419 2°55.846 -999 -999 16 100000 86
2001-07-19 09:53:09 51°17.417 2°55.854 -999 -999 16 100000 86
2001-07-19 09:53:13 51°17.415 2°55.86 -999 -999 16 100000 86
2001-07-19 09:53:19 51°17.413 2°55.869 -999 -999 16 100000 86
2001-07-19 09:53:23 51°17.411 2°55.875 -999 -999 16 99990 86
2001-07-19 09:53:29 51°17.409 2°55.883 -999 -999 16 99990 86
2001-07-19 09:53:33 51°17.407 2°55.889 -999 -999 16 99990 86
2001-07-19 09:53:39 51°17.405 2°55.897 -999 -999 16 99990 86
2001-07-19 09:53:43 51°17.403 2°55.903 -999 -999 16 100000 85
2001-07-19 09:53:49 51°17.401 2°55.911 -999 -999 16 100000 85
2001-07-19 09:53:53 51°17.399 2°55.917 -999 -999 16 99990 85
2001-07-19 09:53:59 51°17.397 2°55.925 -999 -999 16 99990 85
2001-07-19 09:54:03 51°17.396 2°55.93 -999 -999 16 99990 86
2001-07-19 09:54:09 51°17.393 2°55.939 -999 -999 16 99990 86
2001-07-19 09:54:13 51°17.392 2°55.944 -999 -999 16 99990 86
2001-07-19 09:54:19 51°17.39 2°55.952 -999 -999 16 99990 86
2001-07-19 09:54:23 51°17.389 2°55.957 -999 -999 16 100000 85
2001-07-19 09:54:29 51°17.387 2°55.965 -999 -999 16 100000 85
2001-07-19 09:54:33 51°17.385 2°55.971 -999 -999 16.1 99990 85
2001-07-19 09:54:39 51°17.383 2°55.978 -999 -999 16.1 99990 85
2001-07-19 09:54:43 51°17.382 2°55.984 -999 -999 16.1 100000 85
2001-07-19 09:54:49 51°17.38 2°55.992 -999 -999 16.1 100000 85
2001-07-19 09:54:54 51°17.379 2°55.998 -999 -999 16.1 99990 85
2001-07-19 09:54:59 51°17.377 2°56.005 -999 -999 16.1 99990 85
2001-07-19 09:55:03 51°17.376 2°56.01 -999 -999 16.1 100000 85
2001-07-19 09:55:09 51°17.374 2°56.017 -999 -999 16.1 100000 85
2001-07-19 09:55:13 51°17.373 2°56.022 -999 -999 16.1 100000 85
2001-07-19 09:55:19 51°17.371 2°56.03 -999 -999 16.1 100000 85
2001-07-19 09:55:23 51°17.37 2°56.034 -999 -999 16.1 100000 85
2001-07-19 09:55:29 51°17.368 2°56.042 -999 -999 16.1 100000 85
2001-07-19 09:55:33 51°17.367 2°56.047 -999 -999 16.1 99990 85
2001-07-19 09:55:39 51°17.366 2°56.054 -999 -999 16.1 99990 85
2001-07-19 09:55:43 51°17.365 2°56.059 -999 -999 16.1 99990 85
2001-07-19 09:55:49 51°17.363 2°56.066 -999 -999 16.1 99990 85
2001-07-19 09:55:53 51°17.362 2°56.071 -999 -999 16.1 100000 84
2001-07-19 09:55:59 51°17.361 2°56.078 -999 -999 16.1 100000 84
2001-07-19 09:56:03 51°17.36 2°56.082 -999 -999 16.1 100000 84
2001-07-19 09:56:09 51°17.359 2°56.089 -999 -999 16.1 100000 84
2001-07-19 09:56:13 51°17.358 2°56.094 -999 -999 16.1 100000 85
2001-07-19 09:56:19 51°17.357 2°56.101 -999 -999 16.1 100000 85
2001-07-19 09:56:23 51°17.356 2°56.106 -999 -999 16.1 99990 86
2001-07-19 09:56:29 51°17.355 2°56.113 -999 -999 16.1 99990 86
2001-07-19 09:56:33 51°17.354 2°56.117 -999 -999 16.1 100000 85
2001-07-19 09:56:39 51°17.353 2°56.124 -999 -999 16.1 100000 85
2001-07-19 09:56:43 51°17.352 2°56.128 -999 -999 16.1 100000 85
2001-07-19 09:56:49 51°17.351 2°56.135 -999 -999 16.1 100000 85
2001-07-19 09:56:53 51°17.351 2°56.139 -999 -999 16.1 100010 85
2001-07-19 09:56:59 51°17.35 2°56.145 -999 -999 16.1 100010 85
2001-07-19 09:57:03 51°17.349 2°56.15 -999 -999 16.1 100000 85
2001-07-19 09:57:09 51°17.348 2°56.156 -999 -999 16.1 100000 85
2001-07-19 09:57:13 51°17.348 2°56.16 -999 -999 16.1 100000 85
2001-07-19 09:57:19 51°17.347 2°56.167 -999 -999 16.1 100000 85
2001-07-19 09:57:23 51°17.347 2°56.171 -999 -999 16.1 99990 84
2001-07-19 09:57:29 51°17.346 2°56.178 -999 -999 16.1 99990 84
2001-07-19 09:57:33 51°17.346 2°56.182 -999 -999 16.1 100000 84
2001-07-19 09:57:39 51°17.346 2°56.188 -999 -999 16.1 100000 84
2001-07-19 09:57:43 51°17.346 2°56.191 -999 -999 16.1 100010 84
2001-07-19 09:57:49 51°17.346 2°56.197 -999 -999 16.1 100010 84
2001-07-19 09:57:53 51°17.346 2°56.201 -999 -999 16 100010 84
2001-07-19 09:57:59 51°17.347 2°56.206 -999 -999 16 100010 84
2001-07-19 09:58:03 51°17.347 2°56.209 -999 -999 16 100000 84
2001-07-19 09:58:09 51°17.348 2°56.214 -999 -999 16 100000 84
2001-07-19 09:58:13 51°17.349 2°56.217 -999 -999 16 100000 84
2001-07-19 09:58:19 51°17.35 2°56.222 -999 -999 16 100000 84
2001-07-19 09:58:23 51°17.351 2°56.225 -999 -999 16 100000 84
2001-07-19 09:58:29 51°17.352 2°56.229 -999 -999 16 100000 84
2001-07-19 09:58:33 51°17.353 2°56.232 -999 -999 16 100010 84
2001-07-19 09:58:39 51°17.355 2°56.237 -999 -999 16 100010 84
2001-07-19 09:58:43 51°17.356 2°56.24 -999 -999 16 100000 85
2001-07-19 09:58:49 51°17.357 2°56.244 -999 -999 16 100000 85
2001-07-19 09:58:53 51°17.358 2°56.246 -999 -999 16.1 100000 86
2001-07-19 09:58:59 51°17.36 2°56.25 -999 -999 16.1 100000 86
2001-07-19 09:59:03 51°17.362 2°56.253 -999 -999 16.2 100000 86
2001-07-19 09:59:09 51°17.363 2°56.256 -999 -999 16.2 100000 86
2001-07-19 09:59:14 51°17.365 2°56.259 -999 -999 16.2 100000 85
2001-07-19 09:59:19 51°17.367 2°56.262 -999 -999 16.2 100000 85
2001-07-19 09:59:23 51°17.368 2°56.264 -999 -999 16.2 99990 84
2001-07-19 09:59:29 51°17.37 2°56.267 -999 -999 16.2 99990 84
2001-07-19 09:59:35 51°17.372 2°56.27 -999 -999 16.2 100010 84
2001-07-19 09:59:40 51°17.374 2°56.273 -999 -999 16.2 100010 84
2001-07-19 09:59:45 51°17.376 2°56.275 -999 -999 16.2 100010 84
2001-07-19 09:59:50 51°17.378 2°56.278 -999 -999 16.2 100010 84
2001-07-19 09:59:55 51°17.38 2°56.28 -999 -999 16.2 100000 83
2001-07-19 10:00:00 51°17.382 2°56.282 -999 -999 16.2 100000 83
2001-07-19 10:00:05 51°17.384 2°56.284 -999 -999 16.2 100000 83
2001-07-19 10:00:09 51°17.386 2°56.285 -999 -999 16.2 100000 83
2001-07-19 10:00:15 51°17.389 2°56.287 -999 -999 16.2 100000 83
2001-07-19 10:00:20 51°17.391 2°56.289 -999 -999 16.2 100000 83
2001-07-19 10:00:25 51°17.393 2°56.291 -999 -999 16.2 100000 84
2001-07-19 10:00:29 51°17.395 2°56.292 -999 -999 16.2 100000 84
2001-07-19 10:00:35 51°17.398 2°56.294 -999 -999 16.3 100000 84
2001-07-19 10:00:40 51°17.401 2°56.295 -999 -999 16.3 100000 84
2001-07-19 10:00:45 51°17.404 2°56.297 -999 -999 16.3 100000 83
2001-07-19 10:00:49 51°17.406 2°56.298 -999 -999 16.3 100000 83
2001-07-19 10:00:55 51°17.408 2°56.301 -999 -999 16.3 100000 82
2001-07-19 10:00:59 51°17.41 2°56.303 -999 -999 16.3 100000 82
2001-07-19 10:01:05 51°17.412 2°56.306 -999 -999 16.2 100000 82
2001-07-19 10:01:10 51°17.413 2°56.309 -999 -999 16.2 100000 82
2001-07-19 10:01:15 51°17.414 2°56.313 -999 -999 16.2 100000 82
2001-07-19 10:01:19 51°17.414 2°56.317 -999 -999 16.2 100000 82
2001-07-19 10:01:25 51°17.415 2°56.323 -999 -999 16.2 100000 82
2001-07-19 10:01:29 51°17.415 2°56.328 -999 -999 16.2 100000 82
2001-07-19 10:01:35 51°17.415 2°56.336 -999 -999 16.2 100000 83
2001-07-19 10:01:40 51°17.415 2°56.344 -999 -999 16.2 100000 83
2001-07-19 10:01:45 51°17.416 2°56.352 -999 -999 16.2 99990 83
2001-07-19 10:01:49 51°17.417 2°56.36 -999 -999 16.2 99990 83
2001-07-19 10:01:55 51°17.418 2°56.371 -999 -999 16.2 99990 83
2001-07-19 10:01:59 51°17.419 2°56.379 -999 -999 16.2 99990 83
2001-07-19 10:02:03 51°17.421 2°56.387 -999 -999 16.2 99980 83
2001-07-19 10:02:09 51°17.423 2°56.399 -999 -999 16.2 99980 83
2001-07-19 10:02:13 51°17.425 2°56.407 -999 -999 16.2 99980 83
2001-07-19 10:02:19 51°17.43 2°56.42 -999 -999 16.2 99980 83
2001-07-19 10:02:23 51°17.433 2°56.428 -999 -999 16.2 99980 83
2001-07-19 10:02:29 51°17.439 2°56.439 -999 -999 16.2 99980 83
2001-07-19 10:02:33 51°17.443 2°56.446 -999 -999 16.2 99980 84
2001-07-19 10:02:39 51°17.45 2°56.455 -999 -999 16.2 99980 84
2001-07-19 10:02:43 51°17.454 2°56.461 -999 -999 16.2 99980 84
2001-07-19 10:02:49 51°17.462 2°56.469 -999 -999 16.2 99980 84
2001-07-19 10:02:53 51°17.467 2°56.473 -999 -999 16.2 99980 83
2001-07-19 10:02:59 51°17.476 2°56.478 -999 -999 16.2 99980 83
2001-07-19 10:03:03 51°17.481 2°56.481 -999 -999 16.2 99980 83
2001-07-19 10:03:09 51°17.489 2°56.483 -999 -999 16.2 99980 83
2001-07-19 10:03:13 51°17.495 2°56.483 -999 -999 16.2 99980 83
2001-07-19 10:03:19 51°17.502 2°56.483 -999 -999 16.2 99980 83
2001-07-19 10:03:23 51°17.507 2°56.482 -999 -999 16.2 99990 83
2001-07-19 10:03:29 51°17.513 2°56.48 -999 -999 16.2 99990 83
2001-07-19 10:03:33 51°17.517 2°56.478 -999 -999 16.2 99990 84
2001-07-19 10:03:39 51°17.522 2°56.473 -999 -999 16.2 99990 84
2001-07-19 10:03:43 51°17.525 2°56.469 -999 -999 16.2 100000 84
2001-07-19 10:03:49 51°17.529 2°56.463 -999 -999 16.2 100000 84
2001-07-19 10:03:53 51°17.53 2°56.459 -999 -999 16.2 99990 84
2001-07-19 10:03:59 51°17.531 2°56.453 -999 -999 16.2 99990 84
2001-07-19 10:04:03 51°17.531 2°56.449 -999 -999 16.2 99990 84
2001-07-19 10:04:09 51°17.53 2°56.443 -999 -999 16.2 99990 84
2001-07-19 10:04:13 51°17.529 2°56.44 -999 -999 16.2 99980 83
2001-07-19 10:04:19 51°17.526 2°56.434 -999 -999 16.2 99980 83
2001-07-19 10:04:23 51°17.524 2°56.431 -999 -999 16.1 99970 83
2001-07-19 10:04:29 51°17.52 2°56.426 -999 -999 16.1 99970 83
2001-07-19 10:04:33 51°17.517 2°56.423 -999 -999 16.1 99980 83
2001-07-19 10:04:39 51°17.512 2°56.418 -999 -999 16.1 99980 83
2001-07-19 10:04:43 51°17.508 2°56.414 -999 -999 16.1 99980 83
2001-07-19 10:04:49 51°17.503 2°56.409 -999 -999 16.1 99980 83
2001-07-19 10:04:54 51°17.498 2°56.404 -999 -999 16.1 99980 83
2001-07-19 10:04:59 51°17.493 2°56.398 -999 -999 16.1 99980 83
2001-07-19 10:05:03 51°17.489 2°56.393 -999 -999 16.1 99990 83
2001-07-19 10:05:09 51°17.484 2°56.386 -999 -999 16.1 99990 83
2001-07-19 10:05:13 51°17.48 2°56.381 -999 -999 16.1 99980 83
2001-07-19 10:05:19 51°17.475 2°56.373 -999 -999 16.1 99980 83
2001-07-19 10:05:23 51°17.472 2°56.368 -999 -999 16.1 99990 83
2001-07-19 10:05:29 51°17.468 2°56.361 -999 -999 16.1 99990 83
2001-07-19 10:05:34 51°17.465 2°56.355 -999 -999 16.1 99990 84
2001-07-19 10:05:39 51°17.462 2°56.349 -999 -999 16.1 99990 84
2001-07-19 10:05:43 51°17.46 2°56.345 -999 -999 16.1 99970 83
2001-07-19 10:05:49 51°17.457 2°56.338 -999 -999 16.1 99970 83
2001-07-19 10:05:53 51°17.455 2°56.334 -999 -999 16.1 99990 82
2001-07-19 10:05:59 51°17.453 2°56.327 -999 -999 16.1 99990 82
2001-07-19 10:06:03 51°17.451 2°56.322 -999 -999 16.1 99980 83
2001-07-19 10:06:09 51°17.449 2°56.316 -999 -999 16.1 99980 83
2001-07-19 10:06:14 51°17.447 2°56.311 -999 -999 16.1 99980 83
2001-07-19 10:06:19 51°17.446 2°56.306 -999 -999 16.1 99980 83
2001-07-19 10:06:23 51°17.445 2°56.302 -999 -999 16.1 99980 83
2001-07-19 10:06:29 51°17.444 2°56.296 -999 -999 16.1 99980 83
2001-07-19 10:06:33 51°17.443 2°56.292 -999 -999 16.1 99980 83
2001-07-19 10:06:39 51°17.442 2°56.287 -999 -999 16.1 99980 83
2001-07-19 10:06:43 51°17.442 2°56.283 -999 -999 16.1 99980 82
2001-07-19 10:06:49 51°17.441 2°56.278 -999 -999 16.1 99980 82
2001-07-19 10:06:53 51°17.44 2°56.275 -999 -999 16.1 99990 83
2001-07-19 10:06:59 51°17.44 2°56.27 -999 -999 16.1 99990 83
2001-07-19 10:07:03 51°17.439 2°56.266 -999 -999 16.1 99980 82
2001-07-19 10:07:09 51°17.437 2°56.262 -999 -999 16.1 99980 82
2001-07-19 10:07:13 51°17.437 2°56.258 -999 -999 16.1 99980 83
2001-07-19 10:07:19 51°17.435 2°56.254 -999 -999 16.1 99980 83
2001-07-19 10:07:23 51°17.433 2°56.251 -999 -999 16.1 99980 84
2001-07-19 10:07:29 51°17.431 2°56.247 -999 -999 16.1 99980 84
2001-07-19 10:07:33 51°17.429 2°56.245 -999 -999 16.2 99990 84
2001-07-19 10:07:39 51°17.426 2°56.242 -999 -999 16.2 99990 84
2001-07-19 10:07:43 51°17.424 2°56.24 -999 -999 16.2 99990 84
2001-07-19 10:07:49 51°17.421 2°56.238 -999 -999 16.2 99990 84
2001-07-19 10:07:53 51°17.419 2°56.235 -999 -999 16.2 99990 84
2001-07-19 10:07:59 51°17.415 2°56.233 -999 -999 16.2 99990 84
2001-07-19 10:08:03 51°17.413 2°56.231 -999 -999 16.2 99990 84
2001-07-19 10:08:09 51°17.409 2°56.229 -999 -999 16.2 99990 84
2001-07-19 10:08:13 51°17.407 2°56.228 -999 -999 16.2 99990 83
2001-07-19 10:08:19 51°17.403 2°56.225 -999 -999 16.2 99990 83
2001-07-19 10:08:23 51°17.401 2°56.224 -999 -999 16.2 99990 83
2001-07-19 10:08:29 51°17.397 2°56.221 -999 -999 16.2 99990 83
2001-07-19 10:08:33 51°17.395 2°56.22 -999 -999 16.2 100000 84
2001-07-19 10:08:39 51°17.391 2°56.217 -999 -999 16.2 100000 84
2001-07-19 10:08:43 51°17.388 2°56.216 -999 -999 16.2 99990 84
2001-07-19 10:08:49 51°17.385 2°56.213 -999 -999 16.2 99990 84
2001-07-19 10:08:53 51°17.383 2°56.211 -999 -999 16.2 99990 83
2001-07-19 10:08:59 51°17.379 2°56.208 -999 -999 16.2 99990 83
2001-07-19 10:09:03 51°17.377 2°56.206 -999 -999 16.2 100000 84
2001-07-19 10:09:09 51°17.374 2°56.203 -999 -999 16.2 100000 84
2001-07-19 10:09:13 51°17.372 2°56.201 -999 -999 16.2 100000 83
2001-07-19 10:09:19 51°17.369 2°56.198 -999 -999 16.2 100000 83
2001-07-19 10:09:23 51°17.367 2°56.195 -999 -999 16.2 100000 83
2001-07-19 10:09:29 51°17.364 2°56.192 -999 -999 16.2 100000 83
2001-07-19 10:09:35 51°17.361 2°56.188 -999 -999 16.2 99990 83
2001-07-19 10:09:39 51°17.359 2°56.186 -999 -999 16.2 99990 83
2001-07-19 10:09:43 51°17.357 2°56.184 -999 -999 16.2 99990 83
2001-07-19 10:09:49 51°17.355 2°56.18 -999 -999 16.2 99990 83
2001-07-19 10:09:53 51°17.353 2°56.178 -999 -999 16.2 100000 83
2001-07-19 10:09:59 51°17.351 2°56.176 -999 -999 16.2 100000 83
2001-07-19 10:10:03 51°17.35 2°56.174 -999 -999 16.1 99990 83
2001-07-19 10:10:09 51°17.348 2°56.171 -999 -999 16.1 99990 83
2001-07-19 10:10:13 51°17.347 2°56.17 -999 -999 16.2 100000 84
2001-07-19 10:10:19 51°17.346 2°56.168 -999 -999 16.2 100000 84
2001-07-19 10:10:23 51°17.345 2°56.167 -999 -999 16.2 99990 84
2001-07-19 10:10:29 51°17.344 2°56.165 -999 -999 16.2 99990 84
2001-07-19 10:10:33 51°17.343 2°56.164 -999 -999 16.2 99990 84
2001-07-19 10:10:39 51°17.342 2°56.163 -999 -999 16.2 99990 84
2001-07-19 10:10:43 51°17.342 2°56.162 -999 -999 16.2 100000 84
2001-07-19 10:10:49 51°17.341 2°56.16 -999 -999 16.2 100000 84
2001-07-19 10:10:53 51°17.341 2°56.16 -999 -999 16.2 99990 84
2001-07-19 10:10:59 51°17.34 2°56.159 -999 -999 16.2 99990 84
2001-07-19 10:11:03 51°17.34 2°56.159 -999 -999 16.2 100000 85
2001-07-19 10:11:09 51°17.34 2°56.158 -999 -999 16.2 100000 85
2001-07-19 10:11:13 51°17.34 2°56.158 -999 -999 16.2 99990 85
2001-07-19 10:11:19 51°17.34 2°56.158 -999 -999 16.2 99990 85
2001-07-19 10:11:23 51°17.34 2°56.158 -999 -999 16.2 100000 84
2001-07-19 10:11:29 51°17.34 2°56.158 -999 -999 16.2 100000 84
2001-07-19 10:11:33 51°17.34 2°56.158 -999 -999 16.2 99990 84
2001-07-19 10:11:39 51°17.34 2°56.158 -999 -999 16.2 99990 84
2001-07-19 10:11:43 51°17.341 2°56.159 -999 -999 16.2 99990 85
2001-07-19 10:11:49 51°17.341 2°56.159 -999 -999 16.2 99990 85
2001-07-19 10:11:53 51°17.341 2°56.16 -999 -999 16.3 99990 85
2001-07-19 10:11:59 51°17.341 2°56.16 -999 -999 16.3 99990 85
2001-07-19 10:12:03 51°17.342 2°56.16 -999 -999 16.2 99990 84
2001-07-19 10:12:09 51°17.342 2°56.161 -999 -999 16.2 99990 84
2001-07-19 10:12:13 51°17.342 2°56.162 -999 -999 16.2 99990 83
2001-07-19 10:12:19 51°17.343 2°56.162 -999 -999 16.2 99990 83
2001-07-19 10:12:23 51°17.343 2°56.163 -999 -999 16.2 100000 83
2001-07-19 10:12:29 51°17.343 2°56.164 -999 -999 16.2 100000 83
2001-07-19 10:12:33 51°17.343 2°56.165 -999 -999 16.2 99990 84
2001-07-19 10:12:39 51°17.343 2°56.166 -999 -999 16.2 99990 84
2001-07-19 10:12:43 51°17.343 2°56.167 -999 -999 16.1 100000 84
2001-07-19 10:12:49 51°17.343 2°56.168 -999 -999 16.1 100000 84
2001-07-19 10:12:53 51°17.344 2°56.169 -999 -999 16.1 99990 84
2001-07-19 10:12:59 51°17.344 2°56.17 -999 -999 16.1 99990 84
2001-07-19 10:13:03 51°17.344 2°56.171 -999 -999 16.1 99990 83
2001-07-19 10:13:09 51°17.343 2°56.172 -999 -999 16.1 99990 83
2001-07-19 10:13:13 51°17.343 2°56.174 -999 -999 16.1 99990 83
2001-07-19 10:13:19 51°17.344 2°56.175 -999 -999 16.1 99990 83
2001-07-19 10:13:23 51°17.343 2°56.176 -999 -999 16.1 100000 84
2001-07-19 10:13:29 51°17.344 2°56.178 -999 -999 16.1 100000 84
2001-07-19 10:13:33 51°17.344 2°56.179 -999 -999 16.1 99990 84
2001-07-19 10:13:39 51°17.344 2°56.181 -999 -999 16.1 99990 84
2001-07-19 10:13:43 51°17.344 2°56.182 -999 -999 16.1 99990 85
2001-07-19 10:13:49 51°17.345 2°56.184 -999 -999 16.1 99990 85
2001-07-19 10:13:53 51°17.345 2°56.185 -999 -999 16.1 100000 84
2001-07-19 10:13:59 51°17.345 2°56.187 -999 -999 16.1 100000 84
2001-07-19 10:14:03 51°17.345 2°56.188 -999 -999 16.1 100000 85
2001-07-19 10:14:09 51°17.345 2°56.19 -999 -999 16.1 100000 85
2001-07-19 10:14:13 51°17.345 2°56.191 -999 -999 16.1 100000 85
2001-07-19 10:14:19 51°17.345 2°56.192 -999 -999 16.1 100000 85
2001-07-19 10:14:23 51°17.345 2°56.193 -999 -999 16.1 99990 85
2001-07-19 10:14:29 51°17.344 2°56.195 -999 -999 16.1 99990 85
2001-07-19 10:14:33 51°17.344 2°56.196 -999 -999 16.1 100000 85
2001-07-19 10:14:39 51°17.344 2°56.197 -999 -999 16.1 100000 85
2001-07-19 10:14:43 51°17.344 2°56.199 -999 -999 16.1 99990 85
2001-07-19 10:14:49 51°17.344 2°56.2 -999 -999 16.1 99990 85
2001-07-19 10:14:53 51°17.344 2°56.201 -999 -999 16.1 100000 83
2001-07-19 10:14:59 51°17.344 2°56.203 -999 -999 16.1 100000 83
2001-07-19 10:15:03 51°17.343 2°56.204 -999 -999 16 99990 84
2001-07-19 10:15:09 51°17.343 2°56.206 -999 -999 16 99990 84
2001-07-19 10:15:13 51°17.344 2°56.207 -999 -999 16 99990 84
2001-07-19 10:15:19 51°17.344 2°56.209 -999 -999 16 99990 84
2001-07-19 10:15:23 51°17.344 2°56.21 -999 -999 16 100000 84
2001-07-19 10:15:29 51°17.344 2°56.211 -999 -999 16 100000 84
2001-07-19 10:15:33 51°17.343 2°56.212 -999 -999 16 100000 84
2001-07-19 10:15:39 51°17.343 2°56.213 -999 -999 16 100000 84
2001-07-19 10:15:43 51°17.343 2°56.214 -999 -999 16 100000 84
2001-07-19 10:15:49 51°17.342 2°56.216 -999 -999 16 100000 84
2001-07-19 10:15:53 51°17.342 2°56.216 -999 -999 16 100000 85
2001-07-19 10:15:59 51°17.341 2°56.217 -999 -999 16 100000 85
2001-07-19 10:16:03 51°17.34 2°56.217 -999 -999 16 100000 85
2001-07-19 10:16:09 51°17.339 2°56.218 -999 -999 16 100000 85
2001-07-19 10:16:13 51°17.338 2°56.218 -999 -999 16 100000 85
2001-07-19 10:16:19 51°17.337 2°56.218 -999 -999 16 100000 85
2001-07-19 10:16:23 51°17.336 2°56.218 -999 -999 16.1 99990 84
2001-07-19 10:16:29 51°17.335 2°56.218 -999 -999 16.1 99990 84
2001-07-19 10:16:33 51°17.333 2°56.218 -999 -999 16 99990 84
2001-07-19 10:16:39 51°17.333 2°56.217 -999 -999 16 99990 84
2001-07-19 10:16:43 51°17.332 2°56.216 -999 -999 16 100000 84
2001-07-19 10:16:49 51°17.331 2°56.214 -999 -999 16 100000 84
2001-07-19 10:16:53 51°17.33 2°56.212 -999 -999 16 99980 84
2001-07-19 10:16:59 51°17.33 2°56.209 -999 -999 16 99980 84
2001-07-19 10:17:03 51°17.329 2°56.207 -999 -999 16 100000 84
2001-07-19 10:17:09 51°17.328 2°56.204 -999 -999 16 100000 84
2001-07-19 10:17:13 51°17.328 2°56.202 -999 -999 16 99990 84
2001-07-19 10:17:19 51°17.327 2°56.198 -999 -999 16 99990 84
2001-07-19 10:17:23 51°17.326 2°56.195 -999 -999 16 99990 84
2001-07-19 10:17:29 51°17.325 2°56.191 -999 -999 16 99990 84
2001-07-19 10:17:33 51°17.325 2°56.188 -999 -999 16 100000 84
2001-07-19 10:17:39 51°17.325 2°56.183 -999 -999 16 100000 84
2001-07-19 10:17:43 51°17.325 2°56.179 -999 -999 16 99980 84
2001-07-19 10:17:49 51°17.324 2°56.174 -999 -999 16 99980 84
2001-07-19 10:17:55 51°17.325 2°56.169 -999 -999 16 99980 84
2001-07-19 10:17:59 51°17.325 2°56.166 -999 -999 16 99980 84
2001-07-19 10:18:03 51°17.325 2°56.162 -999 -999 16 99980 84
2001-07-19 10:18:09 51°17.326 2°56.158 -999 -999 16 99980 84
2001-07-19 10:18:13 51°17.327 2°56.155 -999 -999 16 99990 84
2001-07-19 10:18:19 51°17.329 2°56.151 -999 -999 16 99990 84
2001-07-19 10:18:23 51°17.33 2°56.149 -999 -999 16 99980 84
2001-07-19 10:18:29 51°17.332 2°56.147 -999 -999 16 99980 84
2001-07-19 10:18:33 51°17.333 2°56.145 -999 -999 16 99990 84
2001-07-19 10:18:39 51°17.335 2°56.143 -999 -999 16 99990 84
2001-07-19 10:18:43 51°17.337 2°56.142 -999 -999 16 99990 84
2001-07-19 10:18:49 51°17.339 2°56.141 -999 -999 16 99990 84
2001-07-19 10:18:53 51°17.34 2°56.141 -999 -999 16 100000 84
2001-07-19 10:18:59 51°17.342 2°56.141 -999 -999 16 100000 84
2001-07-19 10:19:03 51°17.343 2°56.141 -999 -999 16 99990 84
2001-07-19 10:19:09 51°17.344 2°56.142 -999 -999 16 99990 84
2001-07-19 10:19:13 51°17.345 2°56.142 -999 -999 16 100000 84
2001-07-19 10:19:19 51°17.347 2°56.143 -999 -999 16 100000 84
2001-07-19 10:19:23 51°17.347 2°56.144 -999 -999 16 100000 84
2001-07-19 10:19:29 51°17.349 2°56.146 -999 -999 16 100000 84
2001-07-19 10:19:33 51°17.35 2°56.147 -999 -999 16 99990 84
2001-07-19 10:19:39 51°17.351 2°56.149 -999 -999 16 99990 84
2001-07-19 10:19:43 51°17.351 2°56.15 -999 -999 16 99990 84
2001-07-19 10:19:49 51°17.352 2°56.152 -999 -999 16 99990 84
2001-07-19 10:19:53 51°17.353 2°56.154 -999 -999 16 100000 84
2001-07-19 10:19:59 51°17.354 2°56.156 -999 -999 16 100000 84
2001-07-19 10:20:03 51°17.354 2°56.158 -999 -999 16 100000 84
2001-07-19 10:20:09 51°17.355 2°56.16 -999 -999 16 100000 84
2001-07-19 10:20:13 51°17.355 2°56.162 -999 -999 16 99990 83
2001-07-19 10:20:19 51°17.356 2°56.165 -999 -999 16 99990 83
2001-07-19 10:20:23 51°17.356 2°56.167 -999 -999 15.9 99990 83
2001-07-19 10:20:29 51°17.357 2°56.17 -999 -999 15.9 99990 83
2001-07-19 10:20:33 51°17.357 2°56.172 -999 -999 15.9 99990 83
2001-07-19 10:20:39 51°17.357 2°56.175 -999 -999 15.9 99990 83
2001-07-19 10:20:43 51°17.357 2°56.177 -999 -999 15.9 100000 83
2001-07-19 10:20:49 51°17.358 2°56.18 -999 -999 15.9 100000 83
2001-07-19 10:20:53 51°17.358 2°56.182 -999 -999 15.9 99990 83
2001-07-19 10:20:59 51°17.358 2°56.185 -999 -999 15.9 99990 83
2001-07-19 10:21:03 51°17.358 2°56.187 -999 -999 15.9 99990 83
2001-07-19 10:21:09 51°17.358 2°56.19 -999 -999 15.9 99990 83
2001-07-19 10:21:13 51°17.358 2°56.192 -999 -999 16 99990 83
2001-07-19 10:21:19 51°17.358 2°56.196 -999 -999 16 99990 83
2001-07-19 10:21:23 51°17.358 2°56.198 -999 -999 16 99990 84
2001-07-19 10:21:29 51°17.358 2°56.202 -999 -999 16 99990 84
2001-07-19 10:21:35 51°17.358 2°56.205 -999 -999 16 100000 83
2001-07-19 10:21:39 51°17.358 2°56.207 -999 -999 16 100000 83
2001-07-19 10:21:43 51°17.358 2°56.21 -999 -999 16 100000 83
2001-07-19 10:21:49 51°17.358 2°56.213 -999 -999 16 100000 83
2001-07-19 10:21:53 51°17.358 2°56.215 -999 -999 16 100000 84
2001-07-19 10:21:59 51°17.358 2°56.218 -999 -999 16 100000 84
2001-07-19 10:22:03 51°17.358 2°56.221 -999 -999 16 100000 84
2001-07-19 10:22:09 51°17.357 2°56.223 -999 -999 16 100000 84
2001-07-19 10:22:13 51°17.357 2°56.225 -999 -999 16.1 100010 85
2001-07-19 10:22:19 51°17.357 2°56.228 -999 -999 16.1 100010 85
2001-07-19 10:22:23 51°17.356 2°56.229 -999 -999 16.1 100000 84
2001-07-19 10:22:29 51°17.356 2°56.231 -999 -999 16.1 100000 84
2001-07-19 10:22:33 51°17.355 2°56.232 -999 -999 16.1 100010 84
2001-07-19 10:22:39 51°17.354 2°56.233 -999 -999 16.1 100010 84
2001-07-19 10:22:43 51°17.353 2°56.234 -999 -999 16.1 100000 83
2001-07-19 10:22:49 51°17.352 2°56.234 -999 -999 16.1 100000 83
2001-07-19 10:22:53 51°17.352 2°56.233 -999 -999 16.1 100010 83
2001-07-19 10:22:59 51°17.35 2°56.233 -999 -999 16.1 100010 83
2001-07-19 10:23:03 51°17.35 2°56.232 -999 -999 16.1 100000 84
2001-07-19 10:23:09 51°17.348 2°56.231 -999 -999 16.1 100000 84
2001-07-19 10:23:13 51°17.347 2°56.229 -999 -999 16.1 100000 84
2001-07-19 10:23:19 51°17.346 2°56.227 -999 -999 16.1 100000 84
2001-07-19 10:23:23 51°17.345 2°56.225 -999 -999 16.1 100010 85
2001-07-19 10:23:29 51°17.343 2°56.22 -999 -999 16.1 100010 85
2001-07-19 10:23:33 51°17.342 2°56.217 -999 -999 16.1 100000 84
2001-07-19 10:23:39 51°17.34 2°56.212 -999 -999 16.1 100000 84
2001-07-19 10:23:43 51°17.339 2°56.208 -999 -999 16.1 100010 84
2001-07-19 10:23:49 51°17.337 2°56.201 -999 -999 16.1 100010 84
2001-07-19 10:23:53 51°17.335 2°56.197 -999 -999 16.1 100000 84
2001-07-19 10:23:59 51°17.333 2°56.189 -999 -999 16.1 100000 84
2001-07-19 10:24:03 51°17.332 2°56.184 -999 -999 16.2 100000 84
2001-07-19 10:24:09 51°17.331 2°56.176 -999 -999 16.2 100000 84
2001-07-19 10:24:13 51°17.33 2°56.171 -999 -999 16.1 99990 84
2001-07-19 10:24:19 51°17.33 2°56.162 -999 -999 16.1 99990 84
2001-07-19 10:24:23 51°17.33 2°56.156 -999 -999 16.2 100000 84
2001-07-19 10:24:29 51°17.33 2°56.147 -999 -999 16.2 100000 84
2001-07-19 10:24:33 51°17.331 2°56.141 -999 -999 16.2 100010 85
2001-07-19 10:24:39 51°17.333 2°56.132 -999 -999 16.2 100010 85
2001-07-19 10:24:43 51°17.334 2°56.126 -999 -999 16.2 99990 84
2001-07-19 10:24:49 51°17.335 2°56.117 -999 -999 16.2 99990 84
2001-07-19 10:24:53 51°17.337 2°56.111 -999 -999 16.2 99990 84
2001-07-19 10:24:59 51°17.338 2°56.102 -999 -999 16.2 99990 84
2001-07-19 10:25:03 51°17.34 2°56.096 -999 -999 16.2 100000 84
2001-07-19 10:25:09 51°17.341 2°56.088 -999 -999 16.2 100000 84
2001-07-19 10:25:13 51°17.342 2°56.084 -999 -999 16.2 100000 84
2001-07-19 10:25:19 51°17.344 2°56.077 -999 -999 16.2 100000 84
2001-07-19 10:25:23 51°17.345 2°56.073 -999 -999 16.2 99990 84
2001-07-19 10:25:29 51°17.346 2°56.068 -999 -999 16.2 99990 84
2001-07-19 10:25:33 51°17.347 2°56.065 -999 -999 16.2 99980 84
2001-07-19 10:25:39 51°17.348 2°56.061 -999 -999 16.2 99980 84
2001-07-19 10:25:43 51°17.349 2°56.058 -999 -999 16.2 99990 83
2001-07-19 10:25:49 51°17.35 2°56.056 -999 -999 16.2 99990 83